Weather History for Morristown, NJ

Change the Weather History Date:

Monday, November 19, 2012

  Actual Average Record
Temperature  
Mean Temperature 37 °F -  
Max Temperature 50 °F 53 °F 75 °F (1941)
Min Temperature 24 °F 30 °F 14 °F (1936)
Degree Days  
Heating Degree Days 28    
Moisture  
Dew Point 29 °F    
Average Humidity 91    
Maximum Humidity 100    
Minimum Humidity 54    
Precipitation  
Precipitation 0.00 in - - ()
Sea Level Pressure  
Sea Level Pressure 30.43 in    
Wind  
Wind Speed 1 mph (ENE)    
Max Wind Speed 9 mph    
Max Gust Speed 16 mph    
Visibility 9 miles    
Events      
Averages and records for this station are not official NWS values.
T = Trace of Precipitation, MM = Missing Value Source: NWS Daily Summary

Daily Weather History Graph

Daily Weather History Graph

Search for Another Location

Airport:

Trip Planner

Search our weather history database for the weather conditions in past years. The results will help you decide how hot, cold, wet, or windy it might be!

Date:

Astronomy

Nov. 19, 2012 Rise Set
Actual Time 6:49 AM EST 4:36 PM EST
Civil Twilight 6:20 AM EST 5:05 PM EST
Nautical Twilight 5:46 AM EST 5:39 PM EST
Astronomical Twilight 5:14 AM EST 6:11 PM EST
Moon 11:50 AM EST (11/19) 11:01 PM EST (11/19)
Length of Visible Light 10h 45m
Length of Day
9h 46m
Waxing Crescent, 40% of the Moon is Illuminated
Nov 19
Waxing Crescent
Nov 20
First Quarter
Nov 28
Full
Dec 6
Last Quarter
Dec 13
New

Hourly Weather History & Observations

Time (EST) Temp. Windchill Dew Point Humidity Pressure Visibility Wind Dir Wind Speed Gust Speed Precip Events Conditions
12:15 AM 28.4 °F - 28.4 °F 100% 30.57 in 10.0 mi Calm Calm - N/A   Mostly Cloudy
12:35 AM 28.4 °F - 28.4 °F 100% 30.56 in 10.0 mi Calm Calm - N/A   Scattered Clouds
12:55 AM 28.4 °F - 28.4 °F 100% 30.56 in 10.0 mi Calm Calm - N/A   Clear
1:15 AM 28.4 °F - 28.4 °F 100% 30.55 in 10.0 mi Calm Calm - N/A   Clear
1:35 AM 28.4 °F - 28.4 °F 100% 30.55 in 4.0 mi Calm Calm - N/A   Scattered Clouds
1:55 AM 28.4 °F - 28.4 °F 100% 30.55 in 7.0 mi Calm Calm - N/A   Mostly Cloudy
2:15 AM 26.6 °F - 26.6 °F 100% 30.55 in 7.0 mi Calm Calm - N/A   Scattered Clouds
2:35 AM 26.6 °F - 26.6 °F 100% 30.55 in 7.0 mi Calm Calm - N/A   Clear
2:55 AM 26.6 °F - 26.6 °F 100% 30.53 in 5.0 mi Calm Calm - N/A   Clear
3:15 AM 30.2 °F 25.4 °F 30.2 °F 100% 30.52 in 10.0 mi NNE 4.6 mph - N/A   Clear
3:35 AM 32.0 °F 28.7 °F 30.2 °F 93% 30.52 in 10.0 mi NNE 3.5 mph - N/A   Clear
3:55 AM 30.2 °F - 28.4 °F 93% 30.52 in 10.0 mi Calm Calm - N/A   Clear
4:15 AM 28.4 °F - 26.6 °F 93% 30.52 in 10.0 mi Calm Calm - N/A   Clear
4:35 AM 26.6 °F - 26.6 °F 100% 30.53 in 10.0 mi Calm Calm - N/A   Clear
4:55 AM 26.6 °F - 26.6 °F 100% 30.52 in 10.0 mi Calm Calm - N/A   Clear
5:15 AM 26.6 °F - 26.6 °F 100% 30.51 in 10.0 mi Calm Calm - N/A   Clear
5:35 AM 26.6 °F - 26.6 °F 100% 30.51 in 7.0 mi Calm Calm - N/A   Clear
6:45 AM 24.8 °F - 24.8 °F 100% 30.51 in 8.0 mi Calm Calm - N/A   Scattered Clouds
7:45 AM 26.6 °F - 24.8 °F 93% 30.51 in 8.0 mi Calm Calm - N/A   Scattered Clouds
8:45 AM 33.8 °F 27.7 °F 32.0 °F 93% 30.50 in 10.0 mi NNE 6.9 mph - N/A   Scattered Clouds
9:45 AM 41.0 °F 36.4 °F 33.8 °F 76% 30.48 in 10.0 mi ENE 6.9 mph - N/A   Scattered Clouds
10:45 AM 44.6 °F 39.7 °F 33.8 °F 66% 30.47 in 10.0 mi ENE 9.2 mph - N/A   Scattered Clouds
11:45 AM 46.4 °F 42.4 °F 33.8 °F 62% 30.44 in 10.0 mi ENE 8.1 mph 16.1 mph N/A   Scattered Clouds
12:45 PM 48.2 °F - 35.6 °F 62% 30.40 in 10.0 mi East 9.2 mph - N/A   Scattered Clouds
1:45 PM 48.2 °F - 33.8 °F 58% 30.38 in 10.0 mi East 9.2 mph - N/A   Scattered Clouds
2:45 PM 50.0 °F - 33.8 °F 54% 30.36 in 10.0 mi East 6.9 mph - N/A   Scattered Clouds
3:45 PM 48.2 °F - 33.8 °F 58% 30.36 in 10.0 mi East 5.8 mph - N/A   Scattered Clouds
4:45 PM 44.6 °F 43.1 °F 33.8 °F 66% 30.34 in 10.0 mi NE 3.5 mph - N/A   Scattered Clouds
5:45 PM 37.4 °F - 32.0 °F 81% 30.34 in 10.0 mi Calm Calm - N/A   Clear
6:45 PM 33.8 °F - 30.2 °F 87% 30.33 in 10.0 mi Calm Calm - N/A   Clear
7:45 PM 32.0 °F - 30.2 °F 93% 30.32 in 10.0 mi Calm Calm - N/A   Clear
8:45 PM 28.4 °F - 28.4 °F 100% 30.31 in 10.0 mi Calm Calm - N/A   Clear
9:45 PM 32.0 °F - 30.2 °F 93% 30.30 in 10.0 mi Calm Calm - N/A   Clear
9:55 PM 28.4 °F - 28.4 °F 100% 30.29 in 10.0 mi Calm Calm - N/A   Clear
10:15 PM 26.6 °F - 26.6 °F 100% 30.28 in 10.0 mi Calm Calm - N/A   Clear
10:35 PM 28.4 °F - 28.4 °F 100% 30.27 in 10.0 mi Calm Calm - N/A   Clear
10:55 PM 26.6 °F - 26.6 °F 100% 30.27 in 10.0 mi Calm Calm - N/A   Clear
11:15 PM 26.6 °F - 26.6 °F 100% 30.27 in 10.0 mi Calm Calm - N/A   Clear
11:35 PM 26.6 °F - 26.6 °F 100% 30.26 in 10.0 mi Calm Calm - N/A   Clear
11:55 PM 26.6 °F - 26.6 °F 100% 30.26 in 10.0 mi Calm Calm - N/A   Clear